Probability
11 13 16 17 16 14 11 10 9 9 9 8 6 5 4 3 3 2 1 0 0 0 0 0 0 1 2 3 2 2 2 2 2 1 0 0 0 0 0 0 0 1 0
13 16 19 20 18 14 12 11 11 10 9 8 6 4 4 4 3 3 2 1 0 0 0 0 0 0 1 2 1 1 2 1 1 0 1 1 0 0 0 0 0 1 1
15 18 22 23 20 15 13 12 12 10 9 8 7 5 5 5 4 4 4 4 3 2 1 1 0 0 1 1 1 2 3 3 2 1 2 2 1 0 0 0 0 1 1
16 19 23 24 21 17 14 14 14 13 11 9 7 7 7 7 5 3 4 6 5 4 4 3 1 1 2 2 2 3 4 5 5 4 3 2 1 0 0 0 0 0 1
15 18 22 23 22 19 17 17 18 18 15 12 10 9 9 8 6 5 5 6 5 5 5 4 3 2 2 2 2 3 4 5 6 5 4 3 2 1 0 0 0 0 0
13 17 20 20 21 21 20 20 22 22 20 16 13 12 11 9 9 9 8 6 5 4 5 5 5 4 3 3 3 3 3 4 5 5 5 4 3 2 1 1 0 0 0
14 17 17 17 19 21 21 22 22 24 24 21 17 15 13 12 12 11 9 7 6 5 5 5 5 4 3 4 5 5 5 5 4 4 5 5 4 3 2 1 0 0 0
18 19 18 17 18 19 20 21 22 24 27 25 23 21 19 17 15 12 9 6 6 6 5 4 5 4 3 4 6 7 8 7 5 4 4 5 5 4 1 0 0 1 1
23 23 21 19 17 16 17 20 22 25 28 28 27 27 26 22 18 14 10 8 7 7 5 4 4 5 5 4 5 7 8 9 8 6 5 6 7 6 2 0 1 2 2
24 23 20 16 14 13 15 20 21 23 26 27 28 27 25 22 19 17 15 11 9 9 7 4 4 5 6 5 5 5 7 8 9 9 8 7 8 8 5 2 2 3 3
20 18 15 12 11 11 14 17 19 20 22 23 24 24 21 18 18 19 17 14 11 10 8 5 5 6 7 6 6 6 6 7 9 10 9 8 9 9 7 5 4 4 4
17 16 15 14 12 12 14 17 19 21 21 21 21 21 19 17 18 18 17 15 12 10 8 8 7 7 8 9 8 8 6 6 7 9 9 9 9 8 7 6 5 5 5
17 18 19 18 16 15 16 19 20 21 21 20 19 18 17 16 16 14 13 12 12 10 10 10 10 10 11 12 12 9 7 6 6 7 9 10 10 8 7 7 7 7 6
19 21 21 19 16 16 17 18 18 17 16 15 15 15 14 12 10 8 7 8 10 10 9 10 11 12 12 13 13 11 8 7 7 7 8 9 8 7 6 8 9 10 9
20 24 22 16 14 15 16 15 13 11 11 10 10 10 10 8 5 4 4 6 7 7 6 7 9 11 12 13 12 10 9 8 8 8 8 7 6 5 6 8 10 11 11
20 23 22 17 16 17 17 14 11 10 9 7 6 7 7 6 5 4 5 6 5 5 5 6 8 10 11 11 10 10 9 9 8 7 7 6 6 6 5 6 6 7 8
20 21 22 19 17 18 18 15 13 11 10 8 7 7 7 6 5 5 5 5 5 5 6 7 7 8 9 9 8 7 8 8 6 5 6 7 9 8 6 4 3 3 4
21 22 22 21 18 18 18 16 14 13 12 11 10 9 8 7 5 5 4 4 4 5 6 7 6 6 6 5 4 4 4 5 4 4 5 8 12 12 8 5 3 3 3
22 23 25 25 23 21 20 18 17 15 13 12 12 12 11 8 6 4 4 4 4 5 6 5 4 4 4 3 2 2 2 1 2 2 2 5 10 11 9 7 6 4 4
21 24 27 28 25 22 21 22 20 16 13 11 11 13 13 12 9 8 8 7 6 6 5 3 3 3 3 2 1 1 1 0 0 0 1 2 5 6 6 7 8 7 6
20 22 24 25 22 20 22 22 19 14 11 9 10 12 14 14 13 13 11 8 7 6 5 4 5 5 4 3 2 1 0 0 0 0 0 0 1 2 2 4 7 7 6
19 20 21 21 18 18 20 19 15 11 9 8 10 11 12 13 14 13 11 8 7 6 5 5 7 7 6 4 2 0 0 0 0 0 0 0 0 0 0 1 3 4 3
19 20 21 19 16 16 17 15 12 9 8 8 10 11 10 10 11 12 11 9 8 6 5 5 7 8 6 4 2 1 0 0 0 0 0 1 0 0 0 0 0 0 0
19 19 19 17 15 14 14 12 11 9 8 8 9 10 9 8 9 10 10 8 7 7 6 6 6 7 6 4 3 2 1 1 1 0 0 0 0 0 0 0 0 0 1
19 18 17 16 15 14 12 10 9 9 8 6 7 8 7 7 7 8 7 5 4 5 5 5 5 6 5 4 4 3 3 2 1 0 0 0 0 0 0 0 1 1 2
19 16 16 17 16 14 12 9 8 9 7 5 5 6 7 6 6 6 4 2 1 2 2 3 4 4 4 4 3 3 3 3 1 0 0 0 1 1 1 1 2 3 4
Wind_Speed
9 9 10 10 9 8 7 7 6 5 4 3 3 2 2 1 1 2 3 3 3 3 3 2 1 2 2 2 2 2 1 1 1 1 1 2 1 1 1 1 0 1 2
8 9 10 10 10 9 8 7 6 6 5 3 3 2 2 2 2 2 2 3 3 3 3 3 2 2 2 2 2 2 1 1 1 2 1 2 3 3 1 0 1 1 0
14 12 11 10 10 10 9 8 7 6 5 4 3 2 2 1 1 1 1 2 3 3 2 3 2 2 2 2 2 2 3 2 1 1 3 2 2 2 3 2 1 1 0
11 12 11 11 11 10 9 8 7 6 5 5 5 4 3 3 3 2 2 2 3 3 3 3 3 3 2 2 3 3 2 3 1 1 1 2 3 2 2 3 2 1 1
13 13 13 12 11 10 9 8 7 6 6 5 6 5 4 3 2 1 1 2 2 2 3 3 3 3 2 3 3 2 2 3 3 2 1 0 0 1 2 2 3 2 2
11 11 11 10 9 9 8 8 8 6 6 6 6 6 5 4 3 2 2 2 1 2 2 3 3 3 3 3 3 3 3 2 2 2 2 2 1 1 2 2 2 2 2
11 10 11 10 10 10 10 9 9 7 7 7 6 6 5 5 5 4 3 3 2 2 3 3 2 2 3 3 3 2 2 3 2 2 2 2 2 2 2 2 1 1 2
9 9 10 11 11 11 10 9 9 8 7 7 6 5 4 3 3 4 3 3 3 3 3 3 3 3 3 3 3 2 3 2 2 3 2 1 2 2 2 2 2 0 1
7 9 8 9 9 9 9 10 9 7 7 7 6 5 4 4 3 3 3 3 3 3 3 3 3 3 3 2 3 2 3 2 2 3 2 2 2 2 2 2 3 3 1
5 7 8 8 8 8 8 7 8 7 6 7 6 5 5 4 3 3 3 3 3 3 3 3 3 3 3 3 3 2 2 2 2 2 2 2 2 1 1 1 2 2 3
5 6 6 6 5 5 6 6 6 5 5 5 5 5 4 4 4 4 4 3 2 2 3 3 3 3 3 3 3 3 3 3 2 2 2 2 2 1 1 1 1 2 2
4 4 6 7 6 5 5 5 6 6 6 5 4 4 4 3 4 3 3 2 2 2 3 3 3 3 3 3 3 3 3 3 3 2 2 2 1 1 1 1 1 2 2
5 4 5 6 5 5 5 4 5 6 6 5 5 4 3 3 3 3 2 2 1 1 1 2 2 2 2 2 3 3 3 3 3 3 3 3 2 2 1 2 1 1 1
6 6 5 4 5 4 4 4 4 4 6 6 5 5 4 4 3 3 2 2 2 1 1 1 2 2 2 2 2 2 2 2 2 2 3 3 3 3 3 2 2 1 1
6 6 6 4 3 4 4 4 3 3 5 5 5 5 5 4 3 3 2 2 2 2 1 1 1 1 1 2 2 2 2 2 2 2 2 2 2 3 3 2 2 2 2
7 6 6 5 4 4 3 4 4 3 4 5 4 4 3 3 2 2 2 2 2 2 2 2 2 1 1 1 2 3 2 2 2 2 2 2 2 2 2 2 3 4 4
7 7 6 6 4 4 4 3 3 2 4 5 4 3 4 3 3 3 2 2 2 2 2 2 2 2 2 2 2 2 2 2 2 3 2 2 2 2 2 1 1 2 4
7 6 5 6 5 4 4 2 1 2 3 4 4 4 4 4 3 2 2 2 2 2 2 2 2 1 2 2 2 1 1 2 2 3 3 2 3 3 2 2 1 2 3
7 6 6 5 5 5 5 4 3 2 2 3 3 3 4 4 3 3 3 2 2 2 2 2 2 2 2 2 2 1 0 1 2 2 2 2 3 3 2 2 2 2 3
4 5 5 5 5 4 5 5 3 3 2 3 3 3 3 4 4 4 3 2 2 2 2 1 2 2 3 2 2 2 1 1 2 2 2 3 3 4 3 3 3 3 3
5 5 6 5 5 5 5 5 3 2 2 2 3 2 3 3 4 3 2 2 1 1 1 2 2 2 3 3 3 3 2 2 2 2 2 2 3 4 4 4 4 4 3
4 5 5 4 3 5 6 4 3 2 1 1 2 2 2 2 2 2 2 2 3 2 1 1 2 2 2 2 3 4 4 3 2 2 2 2 2 2 3 3 3 3 2
4 4 5 4 3 4 5 5 4 3 3 2 1 1 1 1 1 2 3 2 2 2 2 2 2 2 2 2 3 2 2 2 2 2 3 2 2 2 2 2 3 2 1
2 3 5 4 2 2 3 4 3 3 3 2 2 2 1 1 1 1 1 2 2 2 3 3 3 2 2 1 1 1 1 1 0 1 1 2 2 2 2 2 1 1 2
1 2 4 4 3 2 2 3 3 3 3 2 2 2 2 2 2 1 1 2 3 4 4 4 3 3 3 3 3 1 1 1 1 0 1 1 1 1 2 1 2 2 1
1 2 2 4 3 3 2 3 3 4 3 2 2 2 2 1 1 1 1 2 1 1 3 4 4 3 4 3 2 2 2 1 2 2 1 1 1 1 2 1 2 1 1
Wind_Direction
180 168 165 160 153 153 153 155 152 161 151 144 147 143 159 159 145 172 171 166 164 156 147 162 164 160 161 175 173 158 152 196 150 88 352 334 310 274 250 231 229 260 250
167 167 165 162 161 162 161 160 161 166 167 167 164 161 160 166 166 177 178 179 171 170 170 171 177 173 164 162 164 160 154 210 142 138 113 351 340 326 299 260 198 241 284
173 173 170 168 164 165 167 169 169 167 169 158 134 115 85 66 92 171 190 199 188 188 183 178 174 170 168 181 188 174 159 182 234 159 143 152 233 300 317 305 309 308 330
174 173 170 170 173 174 169 167 167 167 167 158 149 149 157 175 197 195 201 211 202 201 195 180 181 178 179 185 197 184 172 161 193 246 215 178 164 158 303 317 315 295 269
177 176 176 176 176 171 168 170 168 171 170 164 164 162 172 186 188 174 195 217 227 219 206 188 186 188 195 199 203 193 184 176 180 189 197 179 122 146 163 277 307 318 296
179 180 177 171 169 167 168 170 168 178 179 174 173 172 177 180 174 186 197 212 231 240 233 215 203 201 198 201 207 202 196 197 188 187 177 168 171 200 174 211 265 287 294
176 176 174 172 173 173 174 174 174 182 184 181 184 183 186 186 190 197 196 196 207 220 233 225 209 212 209 203 199 199 208 203 198 202 206 200 200 180 168 168 217 281 298
172 172 178 176 174 175 173 172 178 185 186 186 188 186 186 191 203 201 194 199 207 213 217 214 208 207 207 206 192 199 213 204 211 221 212 215 223 186 175 175 162 104 330
164 167 171 171 170 172 174 175 178 185 188 185 179 181 186 189 198 203 194 202 210 211 208 209 199 200 199 201 188 201 213 208 215 224 221 223 231 212 203 183 165 157 187
154 156 162 163 171 173 170 172 174 174 181 178 181 185 192 190 192 196 208 209 215 216 201 207 207 203 196 197 197 205 211 203 220 218 220 234 239 232 209 192 184 172 173
150 156 158 158 150 153 158 164 170 165 172 179 181 182 184 183 185 201 215 211 209 202 199 206 209 208 203 197 196 209 204 203 222 232 215 228 216 213 227 201 185 185 164
155 155 144 137 136 145 152 162 161 162 176 176 170 187 188 184 190 201 208 198 213 221 212 202 197 202 204 196 195 209 202 196 207 220 215 231 219 221 231 205 194 190 168
153 137 126 129 134 143 148 155 155 157 162 158 159 169 171 177 196 205 196 187 193 215 208 180 181 202 207 202 206 199 196 192 204 211 213 225 210 225 229 213 212 213 172
153 142 137 141 142 144 150 149 155 163 158 154 159 174 185 188 197 196 185 191 192 177 169 173 180 195 198 201 199 180 177 188 211 227 227 224 209 214 220 217 212 178 134
153 147 144 143 141 145 154 155 147 161 158 153 166 187 190 191 186 181 186 188 177 179 173 167 183 192 189 202 191 194 186 191 226 254 245 230 214 218 217 209 196 170 157
165 158 154 150 147 146 160 154 157 168 161 161 178 186 179 176 181 183 183 183 179 186 180 191 194 201 219 203 198 194 200 206 216 242 245 238 244 242 230 219 195 177 175
172 164 164 158 160 156 153 163 172 160 164 173 178 178 174 176 191 189 174 185 192 182 183 202 192 205 235 234 230 206 200 216 226 227 230 240 249 240 228 228 197 199 192
162 163 163 158 160 145 136 134 165 171 176 173 173 175 169 173 180 173 190 210 202 194 204 211 208 222 262 269 266 242 227 241 241 236 227 220 249 249 214 206 223 241 241
162 163 161 152 143 140 144 142 158 172 184 176 178 185 179 177 181 189 201 205 204 223 222 206 194 217 266 269 238 199 75 268 266 261 248 228 246 257 210 185 215 258 271
139 140 135 128 133 146 144 138 140 155 187 195 188 188 182 182 186 195 199 202 203 222 224 227 217 224 249 261 209 200 183 226 257 273 275 267 257 260 220 201 200 224 255
135 132 129 133 149 156 145 137 134 166 213 203 173 177 184 185 185 190 190 191 210 215 215 222 248 252 258 254 218 210 198 214 229 248 271 275 280 265 238 217 215 223 227
123 129 129 134 145 147 139 138 162 201 183 168 159 166 187 200 195 188 194 190 192 191 215 226 265 280 272 261 240 228 220 210 204 234 247 259 289 292 258 237 236 228 215
138 145 138 135 140 151 149 157 190 176 141 117 148 171 187 228 223 197 197 204 207 204 223 225 237 263 277 279 265 253 255 233 202 240 249 270 285 296 288 256 247 227 203
135 146 130 129 142 161 156 170 183 162 144 150 189 182 166 161 297 259 213 209 219 216 216 214 221 242 261 276 289 287 302 354 340 301 314 340 339 314 297 313 296 248 223
149 151 148 152 166 161 161 170 169 147 149 176 189 188 175 178 202 235 232 229 238 222 208 210 201 203 237 247 236 217 259 252 217 94 29 19 350 333 321 309 289 272 244
142 151 161 160 168 162 166 175 170 161 160 180 191 190 189 197 192 192 311 348 322 291 218 209 199 205 222 237 234 231 242 232 167 123 125 254 260 257 264 277 294 291 275